Weather in Netivot

Israel     31°25′30″N   34°34′40″E
temp.,
°C
wind,
m/s
gust,
m/s
humid.,
%
clouds,
%
prec.,
mm/h
press.,
hPa
HPBL,
m
17 may, mon
mon1700:00+23nne33440 0.0 100731
03:00+22n5872100 0.0 1008196
06:00+21n4773100 0.0 1009224
09:00+24nnw55545 0.0 1011699
12:00+26nw54495 0.0 1012793
15:00+25nw66545 0.0 1011807
18:00+23nnw66625 0.0 1012676
21:00+22nnw45660 0.0 1013342
18 may, tue
tue1800:00+20n23710 0.0 1013163
03:00+20nnw23760 0.0 1013161
06:00+19ene22810 0.0 1013133
09:00+22nnw22640 0.0 1014637
12:00+25nw54540 0.0 1014755
15:00+25nnw65530 0.0 1013678
18:00+24n67610 0.0 1013592
21:00+22n46740 0.0 1014314
19 may, wed
wed1900:00+21n33790 0.0 1013140
03:00+20n33860 0.0 1013130
06:00+19ne22890 0.0 1013107
09:00+24n33620 0.0 1013465
12:00+27nnw65500 0.0 1012630
15:00+27n88510 0.0 1011592
18:00+24n89620 0.0 1010485
21:00+22n58800 0.0 1011328
20 may, thu
thu2000:00+21n33840 0.0 1011117
03:00+21nne33850 0.0 101089
06:00+20nne22850 0.0 101076
09:00+25n45610 0.0 1010527
12:00+27nnw66530 0.0 1010604
15:00+27nnw88540 0.0 1008552
18:00+25nnw79640 0.0 1008482
21:00+23nnw56827 0.0 1010227
21 may, fri
fri2100:00+22nnw468694 0.0 1009244
03:00+22nnw34867 0.0 1009141
06:00+21nnw22871 0.0 100979
09:00+25nnw34624 0.0 1010517
12:00+27nw55522 0.0 1009616
15:00+27nw65510 0.0 1008593
18:00+25nw55580 0.0 1008440
21:00+23nnw34750 0.0 1009120